Location: Bl�riot-Plage
(50.9575°N, 1.8224°E)
Time: 03:00:44
(UTC+00:00)

Daily predictions for brighter satellites

Satellite Brightness Start Highest point End
(mag) Time Altitude Azimuth Time Altitude Azimuth Time Altitude Azimuth
Cosmos 1697 Rocket 4.3 02:35:00 30° ENE 02:35:00 30° ENE 02:39:19 10° ESE
Cosmos 2344 4.0 02:37:40 53° ESE 02:37:40 53° ESE 02:45:08 10° NE
ADEOS II 4.4 02:34:14 10° NNE 02:35:25 17° NNE 02:35:25 17° NNE
USA 238 DEB 4.4 02:41:03 47° E 02:41:03 47° E 02:46:34 10° NE
USA 238 4.4 02:41:08 47° E 02:41:08 47° E 02:46:40 10° NE
NOSS 3-2 (A) 4.4 02:44:26 44° ENE 02:44:26 44° ENE 02:49:12 10° NE
Cosmos 1980 Rocket 4.0 02:54:35 21° N 02:56:55 27° NE 03:01:39 10° E
SL-16 R/B 4.5 03:00:37 14° N 03:00:37 14° N 03:02:14 10° N
USA 234 3.4 02:53:42 10° ENE 02:59:22 69° NE 02:59:22 69° NE
ADEOS Rocket 3.7 02:57:59 10° SE 03:03:09 44° ENE 03:08:31 10° N
IDEFIX/ARIANE 42P 3.8 03:15:54 10° NNE 03:18:52 35° NNE 03:18:52 35° NNE
MSX 3.8 03:26:31 10° NNE 03:32:03 81° NE 03:32:03 81° NE
In-Cosmos 22 4.2 03:35:42 72° ESE 03:35:44 73° E 03:41:13 10° NNE
Cosmos 1833 Rocket 3.9 03:33:50 22° SSE 03:36:52 38° ESE 03:42:04 10° NE
Cosmos 2279 Rocket 3.9 03:31:00 10° N 03:43:01 12° S 03:43:25 10° S
CZ-4B R/B 3.9 03:34:43 10° ESE 03:37:08 23° ENE 03:37:08 23° ENE
Cosmos 1626 4.4 03:39:54 17° SE 03:41:39 23° E 03:44:38 10° NE
NOSS 3-2 (C) 3.3 03:43:22 71° SSW 03:44:01 82° SE 03:50:43 10° NE
Cosmos 1536 Rocket 4.3 03:48:18 50° NNE 03:48:18 50° NNE 03:51:42 10° NNE
CENTAUR R/B 2.5 03:50:11 61° SW 03:51:27 87° SE 03:58:47 10° NE
Cosmos 2369 3.7 03:49:30 38° NNW 03:51:45 78° ENE 03:57:24 10° SE
Cosmos 2082 Rocket 3.7 03:54:52 10° S 03:59:50 33° ESE 04:04:49 10° NE
SL-16 R/B 4.0 04:00:09 10° NNW 04:05:01 28° NE 04:09:53 10° E
PSLV R/B 3.6 04:00:51 10° NNE 04:05:10 79° ESE 04:05:31 72° SSE
CZ-2C R/B 2.4 04:01:47 10° NNE 04:06:51 82° ESE 04:08:51 36° S
ARIANE 5 R/B 3.9 04:03:12 10° N 04:05:38 24° NNW 04:05:38 24° NNW
ISS -2.0 04:09:06 29° SE 04:09:06 29° SE 04:11:37 10° E
Lacrosse 4 Rocket 1.4 04:18:22 65° NNW 04:18:22 65° NNW 04:22:04 10° NNE
ADEOS II 4.1 04:15:13 10° NNW 04:16:21 13° NNW 04:16:21 13° NNW
Cosmos 1697 Rocket 2.6 04:16:50 41° NW 04:18:41 63° WSW 04:24:15 10° SSE
Meteor 1-31 Rocket 4.4 04:17:43 10° NNE 04:21:23 35° E 04:25:01 10° SSE
COSMOS 2406 3.1 04:21:37 33° SW 04:24:19 83° WNW 04:30:02 10° NNE
Lacrosse 5 rocket 1.5 04:25:46 49° S 04:26:16 55° SE 04:29:59 10° ENE
Meteor 2-5 Rocket 4.0 04:22:43 10° S 04:28:24 73° E 04:34:15 10° NNE
FENGYUN 3A 4.1 04:23:24 10° NNE 04:28:49 62° ESE 04:34:12 10° S
Cosmos 2360 Rocket 4.3 04:24:50 10° NNW 04:29:14 23° NE 04:33:36 10° E
USA 238 DEB 3.9 04:28:30 37° W 04:30:56 53° NNW 04:37:48 10° NE
USA 238 3.9 04:28:35 36° W 04:31:02 53° NW 04:37:55 10° NE
PAYLOAD A 4.1 04:28:22 10° N 04:33:20 57° WNW 04:35:50 29° SW
NOSS 3-2 (A) 3.9 04:31:50 35° WNW 04:33:52 47° NNW 04:40:34 10° NE
Cosmos 1726 Rocket 3.5 04:34:01 10° N 04:38:31 90° S 04:42:58 10° S
SAR-Lupe-4 3.6 04:35:08 10° SSE 04:38:42 80° ENE 04:42:18 10° NNW
ATLAS 3B R/B 2.9 04:33:13 10° SSW 04:39:42 67° SE 04:46:20 10° NE
ERS-2 3.1 04:37:03 10° S 04:39:17 32° SSW 04:39:17 32° SSW
Cosmos 1980 Rocket 2.1 04:36:25 13° NNW 04:41:30 74° WSW 04:47:04 10° SSE
USA 234 3.6 04:36:42 10° ENE 04:43:03 55° N 04:46:42 26° WNW
Abrixas rocket 3.6 04:43:59 23° S 04:43:59 23° S 04:45:44 10° SE
Cosmos 2228 3.0 04:39:19 10° NNW 04:43:38 61° W 04:47:57 10° S
Meteor 2-13 Rocket 4.4 04:40:35 10° S 04:46:45 89° WNW 04:52:55 10° N
Cosmos 1092 Rocket 4.0 04:41:34 10° S 04:47:44 84° E 04:54:00 10° N
Geosat 4.2 04:43:12 10° S 04:48:03 47° WSW 04:51:08 21° NW
ADEOS Rocket 3.3 04:44:01 10° SSW 04:48:54 33° W 04:53:59 10° NNW
ADEOS 3.5 04:44:40 10° NNE 04:49:56 89° WNW 04:55:11 10° SSW
CZ-3 R/B 4.5 04:35:59 13° WSW 04:51:54 26° SSW 04:59:24 10° SSE
Cosmos 2344 3.9 04:47:42 26° W 04:51:56 52° NNW 05:00:28 10° NE
Nadezhda 4 Rocket 3.9 04:45:58 10° SSW 04:52:01 61° WNW 04:58:08 10° N
Aureole 3 3.6 04:48:03 10° N 04:52:05 85° ENE 04:57:13 10° S
Cosmos 1606 Rocket 3.7 04:49:58 10° NNW 04:54:20 52° W 04:58:40 10° S
Cosmos 1400 Rocket 2.6 04:51:05 10° NNW 04:55:03 69° W 04:58:54 10° S
Cosmos 2219 Rocket 4.5 04:51:20 10° N 04:55:03 17° NNE 04:58:45 10° ENE
SJ-6F 4.4 04:51:36 10° N 04:55:38 59° WNW 04:59:41 10° SSW
CZ-4B R/B 4.0 04:51:23 10° NNE 04:55:40 81° ESE 04:59:42 10° SSW
SAR-Lupe-1 3.9 04:53:02 10° S 04:56:36 70° WSW 05:00:11 10° NNW
IDEFIX/ARIANE 42P 4.1 04:56:43 10° NNW 04:59:41 17° NW 04:59:41 17° NW
COSMO-SKYMED 1 2.5 05:02:33 10° S 05:06:54 77° WSW 05:11:16 10° NNW
Cosmos 1300 3.1 05:04:56 10° NNW 05:08:31 39° W 05:12:05 10° SSW
ARGOS Delta rocket 4.1 05:03:34 10° NNE 05:08:59 88° WNW 05:14:29 10° SSW
CZ-4B R/B 2.2 05:06:34 10° SSW 05:09:39 30° W 05:10:17 28° WNW
ALOS 2.3 05:07:02 10° N 05:11:39 59° WNW 05:16:14 10° SSW
Cosmos 2278 4.0 05:06:29 10° NW 05:11:51 44° WSW 05:17:09 10° S
Meteor 2-10 Rocket 3.5 05:08:11 10° N 05:13:13 80° ENE 05:18:18 10° SSE
Cosmos 2322 Rocket 2.8 05:07:51 10° NNW 05:13:30 57° NE 05:19:03 10° SE
Cosmos 1689 Rocket 2.1 05:13:22 10° S 05:16:14 53° WSW 05:19:07 10° NNW
Cosmos 1674 4.5 05:17:27 15° NW 05:17:27 15° NW 05:18:56 10° NNW
Cosmos 1626 2.8 05:14:34 17° SW 05:16:46 31° WNW 05:20:06 10° N
SL-14 R/B 3.7 05:13:11 10° SW 05:16:57 40° WNW 05:20:47 10° N
Meteor 2-8 Rocket 4.4 05:12:44 10° NNW 05:18:55 76° W 05:25:04 10° S
Cosmos 1833 Rocket 3.0 05:15:37 11° WSW 05:20:44 46° NW 05:26:12 10° NNE
deb Chang Zheng 4 3.6 05:17:33 10° N 05:21:42 52° WNW 05:25:50 10° SW
MOS 1 Rocket 4.1 05:18:03 10° SE 05:22:10 48° ENE 05:26:21 10° N
METEOR-M 4.1 05:19:20 10° N 05:24:38 61° WNW 05:29:53 10° SSW
Cosmos 2084 3.8 05:20:43 10° SW 05:25:01 71° SE 05:29:26 10° NE
H-2A R/B 4.2 05:22:29 10° NNE 05:26:38 39° E 05:30:38 10° SSE
Cosmos 1315 Rocket 2.8 05:22:41 10° NNW 05:26:50 88° WSW 05:30:58 10° S
SJ-12 3.8 05:23:21 10° N 05:27:28 71° WNW 05:31:33 10° SSW
Cosmos 2058 Rocket 3.4 05:24:30 10° NNW 05:28:50 46° W 05:33:05 10° SSW
SL-19 R/B 3.7 05:26:16 10° N 05:29:00 46° WNW 05:31:45 10° SW
Elektron 1 3.6 05:27:53 10° SW 05:30:51 89° S 05:33:59 10° NE
Cosmos 1484 Rocket 3.5 05:27:30 10° N 05:30:59 32° WNW 05:34:24 10° SW
ASTRO F (AKARI) 4.5 05:27:45 10° NNE 05:31:19 87° ESE 05:34:42 10° SSW
Okean 1-7 Rocket 3.6 05:27:09 10° SSW 05:31:41 66° WNW 05:36:11 10° N
H-2A R/B 3.5 05:29:45 10° NNE 05:33:32 57° E 05:37:19 10° S
NOSS 3-2 (C) 4.3 05:30:50 14° W 05:35:37 38° NNW 05:42:10 10° NE
Cosmos 1553 Rocket 3.9 05:30:01 10° NNW 05:36:09 73° W 05:42:11 10° S
Cosmos 1428 Rocket 4.5 05:30:30 10° SSW 05:36:40 62° WNW 05:42:48 10° N
Cosmos 1461 3.5 05:34:28 10° WSW 05:38:57 48° NW 05:43:35 10° NE
Meteor PRIRODA 3.6 05:36:28 10° N 05:40:06 65° WNW 05:43:44 10° SSW
Meteor 1-24 Rocket 4.1 05:34:42 10° SW 05:40:07 44° WNW 05:45:45 10° N
Cosmos 1892 Rocket 4.0 05:36:13 10° SW 05:40:19 40° WNW 05:44:29 10° N
CREW DRAGON DEMO-1 DEB 3.8 05:40:30 15° W 05:42:36 32° SSW 05:45:20 10° SE
USA 290 3.1 05:40:00 10° WSW 05:42:53 29° WNW 05:45:48 10° N
CENTAUR R/B 3.4 05:37:23 12° W 05:42:59 39° NNW 05:50:09 10° NE
Cosmos 2082 Rocket 2.4 05:38:17 10° SW 05:43:44 50° NW 05:49:14 10° NNE
CZ-2C R/B 3.8 05:41:03 10° NNW 05:44:26 18° NW 05:47:44 10° W
ISS -3.8 05:42:03 12° WSW 05:45:11 88° SSE 05:48:34 10° E
Cosmos 614 Rocket 3.9 05:40:28 10° SSW 05:45:37 77° WNW 05:50:46 10° NNE
Cosmos 2026 Rocket 4.2 05:43:00 10° SSW 05:49:10 50° WNW 05:55:23 10° N
SL-16 R/B 2.2 05:44:01 10° NNW 05:49:42 72° WSW 05:55:20 10° SSE
Meteor 2-15 4.4 05:46:38 10° NNW 05:52:39 64° W 05:58:38 10° S
Cosmos 2251 Rocket 4.0 05:48:22 10° SW 05:53:25 41° NW 05:58:27 10° NNE
Meteor 1-31 Rocket 3.8 05:52:22 10° N 05:55:40 26° WNW 05:58:57 10° WSW
Cosmos 1455 2.3 05:52:59 10° NNW 05:56:47 53° W 06:00:33 10° S
Lacrosse 4 Rocket 3.1 05:54:53 10° WNW 05:57:25 16° NNW 05:59:59 10° N
COSMOS 2428 4.3 05:53:26 10° NNW 05:58:32 31° NE 06:03:35 10° ESE
[s.n.46727] 2.5 05:56:59 10° WSW 05:59:43 89° NW 06:02:30 10° ENE
[s.n.46723] 2.6 05:57:01 10° WSW 05:59:49 89° N 06:02:38 10° ENE
Cosmos 2333 Rocket 3.6 05:54:38 10° NNW 05:59:54 37° NE 06:05:07 10° ESE
[s.n.46707] 2.5 05:57:10 10° WSW 05:59:55 89° NNW 06:02:41 10° ENE
[s.n.46708] 2.5 05:57:15 10° WSW 06:00:00 88° NW 06:02:46 10° ENE
[s.n.46719] 2.5 05:57:21 10° WSW 06:00:06 88° N 06:02:52 10° ENE
[s.n.46724] 2.5 05:57:26 10° WSW 06:00:11 88° NNW 06:02:57 10° ENE
[s.n.46687] 2.5 05:57:31 10° WSW 06:00:16 88° NNW 06:03:02 10° ENE
[s.n.46696] 2.5 05:57:37 10° WSW 06:00:22 88° N 06:03:08 10° ENE
[s.n.46720] 2.5 05:57:42 10° WSW 06:00:27 88° NNW 06:03:13 10° ENE
[s.n.46676] 2.5 05:57:47 10° WSW 06:00:33 88° NNW 06:03:19 10° ENE
[s.n.46721] 2.5 05:57:53 10° WSW 06:00:39 88° NNW 06:03:25 10° ENE
[s.n.46728] 2.5 05:57:58 10° WSW 06:00:43 88° NNW 06:03:30 10° ENE
[s.n.46690] 2.5 05:58:04 10° WSW 06:00:49 88° NNW 06:03:35 10° ENE
YAOGAN 6 3.1 05:57:10 10° NNE 06:00:51 68° E 06:04:30 10° S
[s.n.46694] 2.5 05:58:08 10° WSW 06:00:53 88° NNW 06:03:39 10° ENE
Meteor 2-1 Rocket 4.4 05:55:27 10° NNW 06:00:56 53° W 06:06:31 10° S
[s.n.46702] 2.5 05:58:15 10° WSW 06:01:00 88° NNW 06:03:46 10° ENE
[s.n.46679] 2.5 05:58:19 10° WSW 06:01:04 87° NNW 06:03:50 10° ENE
[s.n.46704] 2.5 05:58:21 10° WSW 06:01:09 87° NNW 06:03:58 10° ENE
[s.n.46712] 2.5 05:58:28 10° WSW 06:01:12 87° NNW 06:03:59 10° ENE
CZ-4B R/B 3.4 05:57:29 10° N 06:01:13 38° WNW 06:05:06 10° SW
[s.n.46711] 2.5 05:58:35 10° WSW 06:01:21 87° NNW 06:04:07 10° ENE
[s.n.46684] 2.5 05:58:38 10° WSW 06:01:24 87° N 06:04:09 10° ENE
Cosmos 1697 Rocket 4.4 06:00:07 10° W 06:01:29 11° W 06:02:52 10° WSW
Spot 2 4.2 05:56:59 10° NNE 06:01:29 78° WNW 06:06:15 10° SSW
[s.n.46706] 2.5 05:58:46 10° WSW 06:01:32 87° NNW 06:04:18 10° ENE
[s.n.46678] 2.5 05:58:45 10° WSW 06:01:34 87° NNW 06:04:23 10° ENE
[s.n.46677] 2.5 05:58:55 10° WSW 06:01:40 87° NNW 06:04:26 10° ENE
[s.n.46671] 2.5 05:59:00 10° WSW 06:01:46 87° NNW 06:04:32 10° ENE
[s.n.46675] 2.5 05:59:06 10° WSW 06:01:52 87° N 06:04:38 10° ENE
[s.n.46674] 2.5 05:59:12 10° WSW 06:01:57 87° NNW 06:04:43 10° ENE
[s.n.46698] 2.5 05:59:17 10° WSW 06:02:02 87° NNW 06:04:48 10° ENE
[s.n.46699] 2.5 05:59:19 10° WSW 06:02:07 87° NNW 06:04:56 10° ENE
[s.n.46715] 2.5 05:59:28 10° WSW 06:02:14 86° N 06:04:59 10° ENE
[s.n.46714] 2.5 05:59:33 10° WSW 06:02:19 86° NNW 06:05:05 10° ENE
[s.n.46726] 2.5 05:59:39 10° WSW 06:02:24 86° NNW 06:05:11 10° ENE
[s.n.46703] 2.5 05:59:44 10° WSW 06:02:29 86° NNW 06:05:16 10° ENE
[s.n.46713] 2.5 05:59:50 10° WSW 06:02:36 86° NNW 06:05:22 10° ENE
[s.n.46717] 2.5 05:59:55 10° WSW 06:02:41 86° NNW 06:05:26 10° ENE
[s.n.46691] 2.5 05:59:58 10° WSW 06:02:45 86° NNW 06:05:35 10° ENE
[s.n.46693] 2.5 06:00:06 10° WSW 06:02:52 86° NNW 06:05:38 10° ENE
[s.n.46672] 2.5 06:00:12 10° WSW 06:02:57 86° NNW 06:05:44 10° ENE
[s.n.46701] 2.5 06:00:17 10° WSW 06:03:03 86° NNW 06:05:49 10° ENE
[s.n.46685] 2.5 06:00:23 10° WSW 06:03:08 86° NNW 06:05:55 10° ENE
[s.n.46709] 2.5 06:00:28 10° WSW 06:03:14 85° NNW 06:06:00 10° ENE
[s.n.46683] 2.5 06:00:33 10° WSW 06:03:19 85° NNW 06:06:05 10° ENE
[s.n.46695] 2.5 06:00:38 10° WSW 06:03:24 85° N 06:06:10 10° ENE
[s.n.46688] 2.5 06:00:45 10° WSW 06:03:31 85° NNW 06:06:17 10° ENE
[s.n.46729] 2.5 06:00:50 10° WSW 06:03:35 85° NNW 06:06:21 10° ENE
[s.n.46697] 2.5 06:00:53 10° WSW 06:03:38 85° NNW 06:06:25 10° ENE
[s.n.46725] 2.5 06:00:58 10° WSW 06:03:43 85° NNW 06:06:29 10° ENE
[s.n.46682] 2.5 06:01:03 10° WSW 06:03:48 85° NNW 06:06:35 10° ENE
[s.n.46680] 2.5 06:01:08 10° WSW 06:03:55 85° NNW 06:06:41 10° ENE
[s.n.46718] 2.5 06:01:14 10° WSW 06:04:00 85° NNW 06:06:47 10° ENE
[s.n.46710] 2.5 06:01:20 10° WSW 06:04:05 85° NNW 06:06:52 10° ENE
Cosmos 1626 Rocket 3.6 05:59:48 10° SSW 06:04:13 61° WNW 06:08:41 10° N
[s.n.46673] 2.5 06:01:31 10° WSW 06:04:17 85° NNW 06:07:03 10° ENE
[s.n.46700] 2.5 06:01:37 10° WSW 06:04:22 84° NNW 06:07:09 10° ENE
[s.n.46705] 2.5 06:01:42 10° WSW 06:04:28 84° NNW 06:07:14 10° ENE
[s.n.46692] 2.5 06:01:48 10° WSW 06:04:34 84° NNW 06:07:20 10° ENE
[s.n.46686] 2.5 06:01:53 10° WSW 06:04:39 84° NNW 06:07:26 10° ENE
Lacrosse 5 rocket 1.7 06:01:56 10° W 06:05:30 43° NNW 06:09:15 10° NE
Cosmos 2237 Rocket 4.3 06:02:01 10° NNW 06:06:02 19° NE 06:10:03 10° E
Cosmos 1023 Rocket 4.5 06:01:24 10° SSW 06:06:30 89° WNW 06:11:37 10° NNE
